Weather in Kostomucsha

Russia / Republic of Karelia     64°35′16″N   30°35′54″E
temp.,
°C
wind,
m/s
gust,
m/s
humid.,
%
clouds,
%
prec.,
mm/h
press.,
hPa
HPBL,
m
28 july, wed
wed2800:00+15e22590 0.0 101712
03:00+13sse11687 0.0 101611
06:00+16wsw11695 0.0 101436
09:00+22w22435 0.0 1012517
12:00+25w23355 0.0 10101779
15:00+27wnw24325 0.0 10082639
18:00+27nnw223039 0.0 10062556
21:00+22ne224764 0.0 100531
29 july, thu
thu2900:00+16e37730 0.0 1005163
03:00+13ese22840 0.0 100427
06:00+15sse14820 0.1 1003131
09:00+20wsw346512 0.3 1001701
12:00+22wnw225563 0.3 9991274
15:00+22s326074 2.4 9981158
18:00+21sse226572 2.8 997987
21:00+17ene4686100 6.3 997179
30 july, fri
fri3000:00+12ese4109562 0.9 997312
03:00+10e499668 1.4 997316
06:00+10e41096100 0.4 996357
09:00+12ese4998100 9.4 995367
12:00+15se369492 3.9 994531
15:00+18sw4574100 7.4 993778
18:00+18sw2771100 1.9 993840
21:00+14ssw2690100 2.8 993148
31 july, sat
sat3100:00+13ssw289695 1.8 993196
03:00+11ssw249799 1.8 993105
06:00+12sw259625 0.0 993160
09:00+16sw348160 0.1 993683
12:00+18wsw346967 1.3 9931215
15:00+19wnw236566 2.5 994970
18:00+18wsw347318 1.6 995876
21:00+15w26927 3.3 996217
1 august, sun
sun100:00+12wnw25965 0.0 997110
03:00+10wsw24975 0.0 99882
06:00+11wsw249497 0.0 998131
09:00+15sw1278100 0.0 998445
12:00+18ssw1258100 0.0 9981096
15:00+20sw1251100 0.0 9971614
18:00+18s227299 0.9 996386
21:00+14nnw1191100 3.8 99721